Date String (YYYY-MM-DD hh:mm:ss) UTC,Instrument flags,absolute air pressure of the measurement (hPa),sample flow rate (lpm),inlet stack bypass flow (lpm),air temperature of the measurement (°C),ambient temperature measured by the external sensor (°C),aerosol sample conditioner tube jacket temperature (°C),OPC LED temperature (°C),internal box temperature (°C),relative humidity of the measurement (%),span deviation,mass concentration of particles derived from Lorenz-Mie calculation of OPC scattering (μg/m³),mass concentration of particles derived from Lorenz-Mie calculation of OPC scattering (μg/m³),mass concentration of particles derived from Lorenz-Mie calculation of OPC scattering (μg/m³)
DateTimeUTC,F1_M11,P_M11,Q1_M11,Q2_M11,T1_M11,T2_M11,T3_M11,T4_M11,T5_M11,U1_M11,ZSPAN_M11,X2_M11,X0_M11,X1_M11
2023-07-02 18:00:00,SystemResetWarning,0832.7,4.99,000.00,028.9,025.8,000.0,037.1,030.4,26.0,0000.2,0004.60,0008.65,0004.21
2023-07-02 18:01:00,SystemResetWarning,0832.6,5.01,000.00,028.8,024.7,000.0,037.0,030.2,27.0,0000.3,0004.61,0008.75,0004.22
2023-07-02 18:02:00,SystemResetWarning,0832.6,5.01,000.00,028.7,024.9,000.0,037.0,030.1,27.1,0000.2,0004.61,0008.81,0004.23
2023-07-02 18:03:00,SystemResetWarning,0832.5,4.99,000.00,028.7,025.3,000.0,037.0,030.0,27.0,0000.1,0004.61,0009.11,0004.23
2023-07-02 18:04:00,SystemResetWarning,0832.5,4.99,000.00,028.6,025.7,000.0,037.1,030.1,28.5,0000.2,0004.57,0009.63,0004.23
2023-07-02 18:05:00,SystemResetWarning,0832.5,5.00,000.00,028.7,026.1,000.0,037.1,030.2,26.3,0000.0,0004.55,0009.56,0004.23
2023-07-02 18:06:00,SystemResetWarning,0832.5,5.01,000.00,028.7,026.5,000.0,037.1,030.3,26.9,0000.0,0004.57,0009.69,0004.23
2023-07-02 18:07:00,SystemResetWarning,0832.5,5.00,000.00,028.7,026.8,000.0,037.1,030.3,27.2,0000.0,0004.57,0010.20,0004.25
2023-07-02 18:08:00,SystemResetWarning,0832.5,5.00,000.00,028.7,027.1,000.0,037.1,030.4,25.8,0000.5,0004.59,0009.72,0004.25
2023-07-02 18:09:00,SystemResetWarning,0832.5,5.00,000.00,028.8,027.4,000.0,037.2,030.5,25.9,0000.5,0004.62,0009.52,0004.25
2023-07-02 18:10:00,SystemResetWarning,0832.5,5.01,000.00,028.8,027.4,000.0,037.2,030.5,26.2,0000.0,0004.61,0009.69,0004.25
2023-07-02 18:11:00,SystemResetWarning,0832.5,4.98,000.00,028.8,026.1,000.0,037.1,030.4,26.2,0000.0,0004.62,0010.12,0004.25
2023-07-02 18:12:00,SystemResetWarning,0832.5,5.01,000.00,028.8,024.8,000.0,037.0,030.2,24.7,0000.0,0004.62,0010.16,0004.25
2023-07-02 18:13:00,SystemResetWarning,0832.5,5.01,000.00,028.7,024.8,000.0,036.9,030.1,26.2,0000.0,0004.60,0010.05,0004.24
2023-07-02 18:14:00,SystemResetWarning,0832.5,4.99,000.00,028.6,025.2,000.0,037.0,030.0,25.5,0000.6,0004.59,0009.89,0004.24
2023-07-02 18:15:00,SystemResetWarning,0832.5,5.00,000.00,028.6,025.6,000.0,037.0,030.0,26.8,0001.6,0004.60,0009.35,0004.25
2023-07-02 18:16:00,SystemResetWarning,0832.5,5.00,000.00,028.6,026.1,000.0,037.0,030.1,26.8,0000.7,0004.62,0009.07,0004.27
2023-07-02 18:17:00,SystemResetWarning,0832.5,4.99,000.00,028.6,026.5,000.0,037.1,030.2,27.4,0001.6,0004.62,0008.94,0004.28
2023-07-02 18:18:00,SystemResetWarning,0832.5,5.01,000.00,028.7,026.8,000.0,037.1,030.3,25.8,0001.7,0004.62,0008.20,0004.27
2023-07-02 18:19:00,SystemResetWarning,0832.5,5.00,000.00,028.7,027.1,000.0,037.1,030.4,25.4,0001.0,0004.61,0008.51,0004.28
2023-07-02 18:20:00,SystemResetWarning,0832.5,5.00,000.00,028.7,027.3,000.0,037.1,030.4,26.9,0001.0,0004.60,0008.70,0004.29
2023-07-02 18:21:00,SystemResetWarning,0832.5,5.00,000.00,028.8,027.5,000.0,037.2,030.5,27.6,0000.3,0004.61,0008.50,0004.29
2023-07-02 18:22:00,SystemResetWarning,0832.5,4.99,000.00,028.8,027.3,000.0,037.1,030.5,26.2,0000.2,0004.62,0008.51,0004.29
2023-07-02 18:23:00,SystemResetWarning,0832.5,5.00,000.00,028.8,025.7,000.0,037.0,030.4,25.8,0000.4,0004.63,0008.46,0004.30
2023-07-02 18:24:00,SystemResetWarning,0832.5,5.01,000.00,028.7,024.8,000.0,036.9,030.1,24.9,0000.5,0004.61,0008.42,0004.30
2023-07-02 18:25:00,SystemResetWarning,0832.5,5.00,000.00,028.7,025.0,000.0,036.9,030.0,25.9,0000.3,0004.60,0008.42,0004.29
2023-07-02 18:26:00,SystemResetWarning,0832.6,5.00,000.00,028.6,025.4,000.0,036.9,030.0,24.6,0000.0,0004.57,0009.62,0004.27
2023-07-02 18:27:00,SystemResetWarning,0832.5,5.00,000.00,028.6,025.8,000.0,037.0,030.1,25.0,0000.0,0004.57,0009.73,0004.26
2023-07-02 18:28:00,SystemResetWarning,0832.5,5.00,000.00,028.6,026.2,000.0,037.0,030.2,25.2,0000.0,0004.56,0009.76,0004.25
2023-07-02 18:29:00,SystemResetWarning,0832.5,5.01,000.00,028.6,026.6,000.0,037.0,030.3,25.2,0000.0,0004.60,0010.02,0004.25
2023-07-02 18:30:00,SystemResetWarning,0832.6,4.99,000.00,028.7,026.9,000.0,037.1,030.3,23.4,0000.0,0004.62,0009.94,0004.26
2023-07-02 18:31:00,SystemResetWarning,0832.5,5.00,000.00,028.7,027.2,000.0,037.1,030.4,23.9,0000.0,0004.62,0009.42,0004.26
2023-07-02 18:32:00,SystemResetWarning,0832.5,5.02,000.00,028.8,027.4,000.0,037.1,030.5,24.1,0000.0,0004.63,0009.45,0004.26
2023-07-02 18:33:00,SystemResetWarning,0832.5,4.99,000.00,028.8,027.4,000.0,037.1,030.6,25.0,0000.0,0004.64,0009.37,0004.26
2023-07-02 18:34:00,SystemResetWarning,0832.5,4.99,000.00,028.8,026.0,000.0,037.0,030.4,25.8,0000.0,0004.62,0009.17,0004.26
2023-07-02 18:35:00,SystemResetWarning,0832.5,5.01,000.00,028.7,024.8,000.0,036.9,030.2,24.7,0000.0,0004.61,0009.38,0004.26
2023-07-02 18:36:00,SystemResetWarning,0832.5,5.01,000.00,028.7,024.9,000.0,036.9,030.0,23.1,0000.0,0004.62,0009.61,0004.26
2023-07-02 18:37:00,SystemResetWarning,0832.5,5.00,000.00,028.6,025.2,000.0,036.9,029.9,23.2,0000.0,0004.67,0008.84,0004.27
2023-07-02 18:38:00,SystemResetWarning,0832.5,4.99,000.00,028.6,025.7,000.0,037.0,030.0,24.7,0000.0,0004.68,0008.67,0004.28
2023-07-02 18:39:00,SystemResetWarning,0832.5,5.01,000.00,028.6,026.1,000.0,037.0,030.1,24.8,0000.0,0004.69,0008.91,0004.29
2023-07-02 18:40:00,SystemResetWarning,0832.5,5.00,000.00,028.6,026.5,000.0,037.0,030.2,22.8,0000.0,0004.66,0008.85,0004.29
2023-07-02 18:41:00,SystemResetWarning,0832.5,4.98,000.00,028.6,026.8,000.0,037.0,030.3,24.0,0000.0,0004.65,0008.92,0004.30
2023-07-02 18:42:00,SystemResetWarning,0832.5,4.99,000.00,028.7,027.1,000.0,037.1,030.4,24.7,0000.0,0004.64,0008.95,0004.29
2023-07-02 18:43:00,SystemResetWarning,0832.4,5.00,000.00,028.7,027.4,000.0,037.1,030.4,24.1,0000.0,0004.63,0008.91,0004.30
2023-07-02 18:44:00,SystemResetWarning,0832.4,5.00,000.00,028.8,027.5,000.0,037.1,030.5,23.9,0000.0,0004.63,0008.90,0004.30
2023-07-02 18:45:00,SystemResetWarning,0832.5,5.00,000.00,028.8,026.4,000.0,037.0,030.4,24.2,0000.0,0004.62,0008.74,0004.30
2023-07-02 18:46:00,SystemResetWarning,0832.4,5.01,000.00,028.7,025.7,000.0,036.9,030.3,23.3,0000.0,0004.63,0009.08,0004.31
2023-07-02 18:47:00,SystemResetWarning,0832.4,5.01,000.00,028.7,025.9,000.0,036.9,030.2,22.7,0000.0,0004.66,0009.46,0004.33
2023-07-02 18:48:00,SystemResetWarning,0832.4,5.00,000.00,028.7,026.2,000.0,037.0,030.2,23.1,0000.0,0004.63,0009.67,0004.33
2023-07-02 18:49:00,SystemResetWarning,0832.3,5.00,000.00,028.7,026.5,000.0,037.0,030.3,23.1,0000.0,0004.65,0009.51,0004.34
2023-07-02 18:50:00,SystemResetWarning,0832.3,5.00,000.00,028.7,026.8,000.0,037.1,030.4,22.9,0000.0,0004.68,0009.20,0004.36
2023-07-02 18:51:00,SystemResetWarning,0832.4,5.00,000.00,028.8,027.2,000.0,037.1,030.4,23.5,0000.0,0004.70,0009.15,0004.37
2023-07-02 18:52:00,SystemResetWarning,0832.4,5.00,000.00,028.8,027.3,000.0,037.1,030.5,24.1,0000.0,0004.73,0009.15,0004.38
2023-07-02 18:53:00,SystemResetWarning,0832.4,4.98,000.00,028.8,026.2,000.0,037.0,030.4,24.3,0000.0,0004.74,0009.39,0004.40
2023-07-02 18:54:00,SystemResetWarning,0832.3,5.00,000.00,028.8,025.5,000.0,036.9,030.3,24.6,0000.0,0004.78,0009.45,0004.42
2023-07-02 18:55:00,SystemResetWarning,0832.4,5.02,000.00,028.7,025.7,000.0,036.9,030.2,23.8,-000.0,0004.77,0009.39,0004.42
2023-07-02 18:56:00,SystemResetWarning,0832.4,4.99,000.00,028.7,026.0,000.0,037.0,030.2,23.4,0000.0,0004.79,0009.42,0004.43
2023-07-02 18:57:00,SystemResetWarning,0832.4,4.98,000.00,028.7,026.4,000.0,037.0,030.2,23.3,0000.0,0004.80,0009.12,0004.44
2023-07-02 18:58:00,SystemResetWarning,0832.4,5.02,000.00,028.7,026.7,000.0,037.1,030.3,24.4,0000.0,0004.82,0008.45,0004.46
2023-07-02 18:59:00,SystemResetWarning,0832.4,5.01,000.00,028.7,027.0,000.0,037.1,030.4,23.2,0000.0,0004.84,0008.08,0004.47
